Location: Düngen
(52.0952°N, 10.0219°E)
Time: 18:51:42
(UTC+00:00)

Cosmos 540 Rocket - Pass Details

Date: 11 March 2026
Orbit: 734 x 748 km, 74.1° (Epoch: 20 April)

Event Time Altitude Azimuth Distance (km) Brightness Sun altitude
Rises 19:11:17 0° 334° (NNW) 3,197 7.4 -18.1°
Reaches altitude 10° 19:13:39 10° 334° (NNW) 2,271 6.6 -18.4°
Maximum altitude 19:18:49 89° 245° (WSW) 754 3.4 -19.2°
Enters shadow 19:21:41 27° 157° (SSE) 1,412 4.5 -19.6°
